AA737 MMGL-KSJC

Flight info

Callsign AA737
Flight time N/A
Altitude 37000
Route SEDEM1B LMM PPE ASUTA PDZ COREZ TROXX SILCN6
Aircraft B737/M-V/N

Departure

Time 2026-05-04 01:42
Airport Guadalajara International Airport (MMGL)

Arrival

Time N/A
Airport Norman Y. Mineta San Jose International Airport (KSJC)
Time Latitude Longitude Altitude Speed Heading
2026-05-04 01:34 20.52102 -103.29686 5030 ft 0 kts 199°
2026-05-04 01:37 20.52101 -103.29686 5030 ft 1 kts 193°
2026-05-04 01:37 20.52088 -103.29621 5030 ft 17 kts 58°
2026-05-04 01:38 20.52141 -103.29496 5030 ft 24 kts 122°
2026-05-04 01:38 20.51981 -103.29509 5030 ft 26 kts 194°
2026-05-04 01:38 20.51856 -103.29396 5031 ft 25 kts 123°
2026-05-04 01:38 20.51746 -103.29235 5031 ft 29 kts 128°
2026-05-04 01:39 20.51583 -103.29193 5032 ft 24 kts 204°
2026-05-04 01:39 20.51508 -103.29228 5032 ft 0 kts 205°
2026-05-04 01:40 20.51479 -103.29243 5032 ft 11 kts 205°
2026-05-04 01:41 20.51426 -103.29297 5032 ft 10 kts 264°
2026-05-04 01:41 20.51445 -103.29366 5032 ft 14 kts 294°
2026-05-04 01:41 20.51571 -103.29680 5032 ft 76 kts 294°
2026-05-04 01:41 20.51865 -103.30378 5034 ft 134 kts 294°
2026-05-04 01:42 20.52320 -103.31462 5107 ft 181 kts 294°
2026-05-04 01:42 20.52818 -103.32548 6165 ft 160 kts 296°
2026-05-04 01:42 20.53344 -103.33691 6691 ft 183 kts 292°
2026-05-04 01:42 20.53826 -103.34965 7432 ft 196 kts 291°
2026-05-04 01:43 20.54352 -103.36316 8182 ft 209 kts 292°
2026-05-04 01:43 20.54949 -103.37764 8950 ft 223 kts 292°
2026-05-04 01:43 20.55596 -103.39310 9704 ft 237 kts 292°
2026-05-04 01:43 20.56285 -103.40951 10462 ft 251 kts 292°
2026-05-04 01:44 20.56998 -103.42650 11265 ft 262 kts 293°
2026-05-04 01:44 20.57726 -103.44383 12339 ft 260 kts 293°
2026-05-04 01:44 20.58521 -103.46125 13247 ft 266 kts 301°
2026-05-04 01:44 20.59659 -103.47656 14076 ft 273 kts 315°
2026-05-04 01:45 20.61131 -103.49046 14725 ft 289 kts 320°
2026-05-04 01:45 20.62716 -103.50425 15348 ft 304 kts 320°
2026-05-04 01:45 20.66085 -103.53443 16628 ft 332 kts 319°
2026-05-04 01:46 20.67853 -103.55079 17214 ft 347 kts 319°
2026-05-04 01:46 20.69726 -103.56824 17785 ft 362 kts 319°
2026-05-04 01:46 20.71648 -103.58617 18294 ft 377 kts 319°
2026-05-04 01:46 20.73653 -103.60490 19055 ft 385 kts 319°
2026-05-04 01:47 20.75664 -103.62367 19881 ft 389 kts 319°
2026-05-04 01:47 20.77683 -103.64249 20745 ft 392 kts 319°
2026-05-04 01:47 20.79758 -103.66184 21582 ft 395 kts 319°
2026-05-04 01:47 20.81809 -103.68098 22423 ft 397 kts 319°
2026-05-04 01:48 20.83894 -103.70045 23182 ft 402 kts 319°
2026-05-04 01:48 20.86007 -103.72019 23959 ft 406 kts 319°
2026-05-04 01:48 20.88153 -103.74024 24704 ft 407 kts 319°
2026-05-04 01:48 20.90283 -103.76016 25283 ft 409 kts 319°
2026-05-04 01:49 20.92414 -103.78011 25707 ft 415 kts 318°
2026-05-04 01:49 20.94612 -103.80067 26254 ft 417 kts 319°
2026-05-04 01:49 20.96763 -103.82079 26863 ft 416 kts 319°
2026-05-04 01:49 20.98950 -103.84129 27355 ft 419 kts 318°
2026-05-04 01:50 21.01143 -103.86185 27834 ft 421 kts 318°
2026-05-04 01:50 21.03342 -103.88246 28243 ft 424 kts 318°
2026-05-04 01:50 21.05562 -103.90329 28756 ft 425 kts 318°
2026-05-04 01:50 21.07803 -103.92432 29219 ft 426 kts 318°
2026-05-04 01:51 21.10050 -103.94542 29501 ft 432 kts 318°
2026-05-04 01:51 21.12265 -103.96699 29980 ft 432 kts 315°
2026-05-04 01:51 21.14382 -103.98949 30547 ft 429 kts 314°
2026-05-04 01:51 21.16416 -104.01222 31112 ft 426 kts 313°
2026-05-04 01:52 21.18459 -104.03546 31653 ft 423 kts 312°
2026-05-04 01:52 21.20444 -104.05808 32067 ft 422 kts 313°
2026-05-04 01:52 21.22474 -104.08107 32533 ft 420 kts 313°
2026-05-04 01:52 21.24476 -104.10361 33071 ft 417 kts 313°
2026-05-04 01:53 21.26452 -104.12573 33526 ft 415 kts 313°
2026-05-04 01:53 21.28471 -104.14827 33861 ft 416 kts 313°
2026-05-04 01:53 21.30451 -104.17032 34191 ft 416 kts 313°
2026-05-04 01:53 21.32458 -104.19264 34620 ft 414 kts 313°
2026-05-04 01:54 21.34464 -104.21488 35034 ft 412 kts 313°
2026-05-04 01:54 21.36467 -104.23668 35285 ft 414 kts 313°
2026-05-04 01:54 21.38461 -104.25798 35652 ft 412 kts 314°
2026-05-04 01:54 21.40468 -104.27924 36009 ft 411 kts 314°
2026-05-04 01:55 21.42485 -104.30061 36229 ft 412 kts 314°
2026-05-04 01:55 21.44493 -104.32194 36497 ft 412 kts 313°
2026-05-04 01:55 21.46459 -104.34285 36764 ft 411 kts 313°
2026-05-04 01:55 21.48450 -104.36408 37002 ft 412 kts 313°
2026-05-04 01:56 21.50444 -104.38539 37159 ft 413 kts 313°
2026-05-04 01:56 21.52466 -104.40702 37145 ft 418 kts 313°
2026-05-04 01:56 21.56591 -104.45119 37133 ft 428 kts 313°
2026-05-04 01:57 21.60741 -104.49567 37102 ft 435 kts 313°
2026-05-04 01:57 21.64908 -104.54036 37106 ft 439 kts 313°
2026-05-04 01:58 21.69114 -104.58549 37127 ft 440 kts 313°
2026-05-04 01:58 21.73327 -104.63071 37148 ft 437 kts 313°
2026-05-04 01:59 21.77498 -104.67557 37153 ft 434 kts 313°
2026-05-04 01:59 21.81651 -104.72028 37149 ft 432 kts 313°
2026-05-04 02:00 21.85776 -104.76471 37142 ft 431 kts 313°
2026-05-04 02:00 21.89903 -104.80922 37094 ft 431 kts 313°
2026-05-04 02:01 21.94022 -104.85368 37055 ft 430 kts 313°
2026-05-04 02:01 21.98170 -104.89848 37029 ft 430 kts 313°
2026-05-04 02:02 22.02255 -104.94265 37015 ft 429 kts 313°